Theta_e
345 344 345 343 345 347 348 352 352 353 353 352 350 350 350 349 345 343 346 344 352 350 349 347 344 343 345 346 346 343 346 345 348
339 339 339 339 341 342 343 346 351 351 352 354 351 350 348 338 342 341 342 344 350 350 348 347 345 342 342 344 345 343 348 344 347
337 335 335 335 336 336 336 342 346 350 352 353 352 350 347 338 337 340 341 350 349 348 348 348 347 343 343 342 344 343 345 347 348
340 338 336 335 335 334 334 339 343 347 348 350 353 351 349 336 338 341 339 350 348 347 347 347 347 347 343 344 343 344 343 346 348
345 343 341 341 340 338 336 335 339 343 344 346 351 351 347 336 335 338 338 349 348 348 347 347 347 348 347 343 343 345 345 346 347
340 342 345 344 345 342 340 338 337 338 342 343 344 346 338 334 334 334 344 349 349 349 349 348 348 348 348 348 344 344 346 347 347
338 340 344 344 344 344 342 341 341 338 327 328 334 330 332 334 332 331 343 349 349 350 349 349 349 349 348 348 348 345 346 348 348
329 331 334 336 338 329 329 325 323 324 324 321 319 322 324 328 331 333 340 347 349 350 349 347 348 348 348 348 347 347 346 346 349
321 322 322 321 330 332 331 329 328 321 318 317 316 313 315 324 328 330 338 344 348 348 349 347 345 345 345 346 346 347 348 347 347
308 308 312 313 315 325 328 328 329 327 326 323 314 310 309 308 309 313 328 338 346 347 348 347 346 344 343 343 343 344 348 348 347
301 301 302 303 305 311 317 318 320 323 325 324 324 321 316 308 305 306 311 326 341 347 347 348 347 345 343 343 343 342 347 347 348
299 299 299 299 301 305 306 309 313 314 316 314 319 322 322 318 316 310 306 319 333 343 347 348 347 346 344 342 342 341 342 346 347
298 298 297 299 300 302 301 303 307 307 310 309 311 315 316 315 315 314 308 316 327 338 345 347 347 346 344 342 341 340 340 342 345
296 296 297 297 298 297 298 300 302 305 305 306 310 311 310 310 314 316 314 309 319 330 337 344 343 346 344 342 340 339 339 339 342
296 296 297 296 296 295 296 296 298 301 303 307 307 306 307 307 309 306 314 312 310 321 325 330 337 343 344 342 340 339 339 338 338
297 297 296 296 295 294 295 295 297 297 300 301 299 301 304 304 304 306 310 307 308 309 320 324 328 332 340 341 341 339 339 338 337
297 295 295 294 294 294 294 293 293 295 298 296 297 293 296 300 305 303 306 305 308 308 311 315 319 323 327 332 337 337 338 338 338
295 294 294 293 293 293 292 293 292 292 293 296 296 292 291 295 299 302 303 303 305 305 308 310 313 317 317 323 330 333 336 337 338
295 295 294 293 293 292 292 296 293 291 291 293 297 298 297 295 294 296 300 302 303 302 305 309 309 310 312 318 323 329 333 334 336
294 294 293 293 292 292 292 292 292 291 291 291 291 291 293 295 295 292 293 299 301 302 304 306 309 310 310 310 316 323 328 331 333
Wind_Speed
4 4 4 4 4 6 6 7 6 6 5 4 1 4 7 5 4 4 3 3 6 8 6 6 6 6 6 7 9 7 7 7 7
3 2 3 3 3 4 5 6 6 5 7 7 2 5 7 4 2 2 3 3 6 6 5 5 4 4 4 5 6 5 5 8 8
2 2 2 1 2 3 4 5 5 6 7 8 5 4 5 4 2 3 2 6 6 4 4 4 5 4 3 3 4 3 4 5 6
1 2 3 3 3 3 4 4 5 6 8 9 8 6 4 3 1 4 3 7 7 6 5 4 4 5 5 4 4 3 3 4 7
4 4 3 5 6 6 6 6 6 6 7 9 10 9 7 4 3 3 3 9 8 8 8 7 6 6 6 6 6 5 5 6 6
5 6 7 7 8 8 8 8 8 9 9 9 9 10 1 2 3 3 9 13 10 10 9 9 9 8 9 8 8 8 6 9 8
8 10 13 12 11 11 9 10 10 8 4 4 8 3 5 3 3 3 11 13 11 10 9 9 10 10 10 9 10 10 9 9 10
6 5 5 5 10 4 5 5 4 5 4 4 4 5 5 3 3 5 12 15 14 12 12 11 11 10 9 8 7 12 13 11 12
6 5 6 6 6 7 5 3 4 5 5 5 6 6 5 3 3 5 12 14 17 16 15 13 13 12 12 11 10 8 16 15 14
4 4 4 5 6 5 5 5 5 5 5 5 5 6 6 6 4 3 14 16 19 20 18 17 15 14 14 14 13 13 14 17 17
4 5 5 5 5 5 4 4 4 5 5 6 5 5 5 5 6 4 6 15 19 22 22 20 17 16 15 15 14 13 11 17 17
5 4 5 4 4 6 5 5 4 4 5 5 5 5 5 5 6 5 5 6 13 20 22 21 20 18 17 16 16 15 15 13 18
4 4 5 5 4 4 5 5 4 5 4 4 5 4 5 6 8 6 5 4 6 10 20 21 21 20 19 18 17 17 16 16 15
3 3 4 5 4 4 3 3 2 4 5 5 5 5 5 6 6 7 8 6 6 5 11 18 20 21 22 20 20 19 18 17 17
4 4 4 3 3 4 4 3 3 4 5 6 6 5 5 5 5 5 7 6 6 6 7 7 10 19 22 22 21 21 20 18 18
6 5 6 5 5 5 4 3 3 3 2 3 5 4 7 6 5 4 4 5 6 6 5 5 6 7 22 22 22 22 22 21 19
5 5 5 6 4 6 6 4 3 3 2 3 2 6 6 4 2 3 3 4 4 5 4 5 6 6 7 13 22 20 22 23 22
4 5 4 6 3 4 4 4 3 4 3 4 3 4 5 3 3 4 4 5 3 5 5 5 6 6 5 7 11 18 19 21 22
5 5 5 5 4 5 4 4 3 3 4 3 4 5 4 6 10 2 4 5 6 6 4 4 4 5 5 10 11 14 19 20 20
6 6 6 6 4 5 6 6 5 3 3 4 3 3 3 5 6 10 5 3 4 5 4 5 4 5 5 5 9 18 17 20 20
Wind_Direction
69 57 44 38 32 26 16 15 14 7 8 337 11 49 40 64 133 155 167 106 120 103 92 77 72 70 65 58 67 93 87 102 120
40 33 35 26 11 7 359 352 356 349 345 335 328 67 62 59 117 252 152 152 131 127 133 125 96 86 93 77 68 82 67 122 132
27 358 343 338 333 335 335 330 327 343 337 331 336 29 64 52 198 199 227 178 158 159 169 172 149 131 123 118 103 95 81 105 133
297 298 308 307 312 310 309 303 311 317 326 329 316 333 36 35 188 193 207 227 182 182 188 199 203 180 165 165 152 145 157 126 145
307 295 297 295 299 305 298 296 289 292 305 315 327 333 13 1 326 268 247 226 209 198 196 202 211 224 200 199 191 184 183 179 163
342 321 303 302 299 305 305 302 297 295 295 298 305 318 337 330 314 304 258 237 219 215 210 208 209 219 230 220 210 203 198 191 187
38 32 29 9 336 331 332 329 317 314 318 311 306 296 290 274 259 278 276 244 229 211 204 206 215 221 230 236 230 210 208 202 183
28 27 18 12 10 14 359 345 337 322 309 297 294 292 293 274 257 259 273 256 232 215 217 216 217 218 220 220 236 221 213 213 200
28 22 17 15 4 4 355 344 327 350 339 306 291 284 278 278 286 271 258 260 244 233 227 226 228 229 230 232 236 242 222 214 213
20 11 14 18 3 357 349 342 345 345 336 321 319 312 289 277 268 255 271 258 244 247 237 229 232 233 236 238 242 247 245 217 213
22 11 9 6 357 342 344 340 342 336 332 330 322 305 289 294 287 272 263 265 254 239 244 234 228 234 234 239 241 246 257 223 220
25 10 353 344 339 341 350 339 335 337 331 321 313 310 319 317 312 289 268 266 259 250 242 237 229 229 236 234 236 240 245 250 230
13 359 345 331 341 344 343 326 326 322 320 309 301 305 314 313 313 297 288 265 266 253 243 235 231 230 233 233 232 234 240 246 249
15 350 322 338 342 337 333 316 314 306 304 298 290 294 295 291 301 295 294 270 255 250 256 244 231 228 231 232 229 230 232 240 243
359 337 327 332 331 324 335 307 298 254 281 295 291 283 277 269 269 286 294 295 272 249 242 251 243 235 233 231 230 228 228 232 239
347 340 340 346 347 321 314 288 301 298 295 313 305 287 272 290 269 287 298 332 315 273 256 245 247 248 236 234 228 228 229 225 231
335 341 328 331 334 332 329 332 310 275 281 256 264 313 306 297 236 257 281 304 311 334 297 262 256 253 243 233 229 225 228 231 223
331 321 313 313 314 302 294 288 280 284 293 228 215 317 253 313 248 265 292 295 283 292 296 287 259 249 242 265 245 226 222 229 231
314 306 305 298 294 297 284 291 275 225 268 304 227 234 217 283 303 280 263 254 266 269 278 276 275 267 246 238 242 254 229 221 232
305 297 293 288 283 272 271 285 281 237 233 226 276 273 266 228 232 285 283 275 242 238 247 259 274 272 252 243 239 242 243 230 221